LOCATION NAME,DATE_TIME,AVG_STAGE,STDDEV_STAGE,MIN_STAGE,MAX_STAGE,N_STAGE,AVG_SURFACE_PAR,STDDEV_SURFACE_PAR,MIN_SURFACE_PAR,MAX_SURFACE_PAR,N_SURFACE_PAR,AVG_UW_PAR,STDDEV_UW_PAR,MIN_UW_PAR,MAX_UW_PAR,N_UW_PAR,DAILY_ABLATION
East Lake Bonney,12/5/1994,,,,,0,,,,,0,19.639,2.657,14.446,23.555,13,
East Lake Bonney,12/6/1994,,,,,0,,,,,0,17.794,3.925,11.423,23.235,24,
East Lake Bonney,12/7/1994,,,,,0,,,,,0,14.642,3.281,10.197,19.262,24,
East Lake Bonney,12/8/1994,,,,,0,,,,,0,14.457,3.193,10.156,19.072,24,
East Lake Bonney,12/9/1994,,,,,0,,,,,0,13.832,2.704,10.034,18.227,24,
East Lake Bonney,12/10/1994,,,,,0,,,,,0,13.613,3.22,9.029,17.855,24,
East Lake Bonney,12/11/1994,,,,,0,,,,,0,13.501,2.865,9.061,17.138,24,
East Lake Bonney,12/12/1994,,,,,0,,,,,0,14.088,2.989,9.84,17.204,17,
East Lake Bonney,12/13/1994,,,,,0,,,,,0,3.393,2.249,0,6.808,13,
East Lake Bonney,12/14/1994,,,,,0,,,,,0,0.405,0.84,0,2.554,11,
East Lake Bonney,12/19/1994,,,,,0,,,,,0,5.617,2.368,1.069,9.059,19,
East Lake Bonney,12/20/1994,,,,,0,,,,,0,4.574,2.967,0.752,8.768,24,
East Lake Bonney,12/21/1994,,,,,0,,,,,0,2.901,1.68,0.813,5.665,24,
East Lake Bonney,12/22/1994,,,,,0,,,,,0,4.029,2.293,1.085,7.42,24,
East Lake Bonney,12/23/1994,,,,,0,,,,,0,3.467,2.3,1.006,8.106,24,
East Lake Bonney,12/24/1994,,,,,0,,,,,0,4.439,2.784,0.899,9.777,24,
East Lake Bonney,12/25/1994,,,,,0,,,,,0,4.143,3.06,0.909,12.334,24,
East Lake Bonney,12/26/1994,,,,,0,,,,,0,5.582,3.393,1.302,11.028,24,
East Lake Bonney,12/27/1994,,,,,0,,,,,0,5.336,3.276,1.211,10.229,24,
East Lake Bonney,12/28/1994,,,,,0,,,,,0,1.509,0.571,0.923,2.615,8,
East Lake Bonney,1/2/1995,,,,,0,,,,,0,6.248,3.86,1.045,11.55,22,
East Lake Bonney,1/3/1995,,,,,0,,,,,0,2.247,1.541,0.474,4.873,24,
East Lake Bonney,1/4/1995,,,,,0,,,,,0,5.236,3.624,0.877,11.208,24,
East Lake Bonney,1/5/1995,,,,,0,,,,,0,5.678,3.354,1.955,11.623,24,
East Lake Bonney,1/6/1995,,,,,0,,,,,0,5.172,2.452,1.585,8.79,24,
East Lake Bonney,1/7/1995,,,,,0,,,,,0,6.791,4.052,1.366,13.496,24,
East Lake Bonney,1/8/1995,,,,,0,,,,,0,6.752,4.333,1.051,12.748,24,
East Lake Bonney,1/9/1995,,,,,0,,,,,0,6.933,4.691,1.105,13.6,24,
East Lake Bonney,1/10/1995,,,,,0,,,,,0,6.328,4.164,1.055,12.535,24,
East Lake Bonney,1/11/1995,,,,,0,,,,,0,2.705,1.838,1.04,5.916,9,
East Lake Bonney,1/16/1995,,,,,0,,,,,0,1.624,0,1.624,1.624,1,
East Lake Bonney,1/16/1995,,,,,0,,,,,0,5.446,3.62,1.015,12.412,24,
East Lake Bonney,1/17/1995,,,,,0,,,,,0,6.059,3.862,1.367,11.825,24,
East Lake Bonney,1/18/1995,,,,,0,,,,,0,5.837,3.732,1.192,12.308,24,
East Lake Bonney,1/19/1995,,,,,0,,,,,0,4.93,2.641,1.365,8.501,24,
East Lake Bonney,1/20/1995,,,,,0,,,,,0,6.19,4.509,1.184,14.849,24,
East Lake Bonney,1/21/1995,,,,,0,,,,,0,6.263,4.166,1.003,12.113,24,
East Lake Bonney,1/22/1995,,,,,0,,,,,0,5.75,3.827,0.996,11.695,24,
East Lake Bonney,1/23/1995,,,,,0,,,,,0,6.2,4.159,1.132,14.178,24,
East Lake Bonney,1/24/1995,,,,,0,,,,,0,6.564,4.455,1.322,14.878,24,
East Lake Bonney,1/25/1995,,,,,0,,,,,0,6.612,4.496,1.345,13.737,24,
East Lake Bonney,1/26/1995,,,,,0,,,,,0,5.78,3.719,1.099,13.239,24,
East Lake Bonney,1/27/1995,,,,,0,,,,,0,6.601,4.508,1.022,13.989,24,
East Lake Bonney,1/28/1995,,,,,0,,,,,0,4.625,2.711,1.183,9.01,24,
East Lake Bonney,1/29/1995,,,,,0,,,,,0,6.559,4.509,0.866,13.103,24,
East Lake Bonney,1/30/1995,,,,,0,,,,,0,6.743,4.844,0.954,13.694,24,
East Lake Bonney,1/31/1995,,,,,0,,,,,0,6.769,4.942,0.956,13.949,24,
East Lake Bonney,2/1/1995,,,,,0,,,,,0,7.442,5.485,0.957,15.34,24,
East Lake Bonney,2/2/1995,,,,,0,,,,,0,7.673,5.85,0.984,16.523,24,
East Lake Bonney,2/3/1995,,,,,0,,,,,0,7.817,5.848,0.98,16.5,24,
East Lake Bonney,2/4/1995,,,,,0,,,,,0,7.803,5.686,0.912,18.571,24,
East Lake Bonney,2/5/1995,,,,,0,,,,,0,7.77,5.847,0.942,16.207,24,
East Lake Bonney,2/6/1995,,,,,0,,,,,0,7.95,5.938,0.969,16.599,24,
East Lake Bonney,2/7/1995,,,,,0,,,,,0,7.768,5.798,0.972,16.626,24,
East Lake Bonney,2/8/1995,,,,,0,,,,,0,7.571,5.812,0.859,16.316,24,
East Lake Bonney,2/9/1995,,,,,0,,,,,0,7.464,5.868,0.786,16.61,24,
East Lake Bonney,2/10/1995,,,,,0,,,,,0,6.488,5.691,0.723,16.143,24,
East Lake Bonney,2/11/1995,,,,,0,,,,,0,6.73,5.478,0.582,15.557,24,
East Lake Bonney,2/12/1995,,,,,0,,,,,0,5.781,5.305,0.491,15.249,24,
East Lake Bonney,2/13/1995,,,,,0,,,,,0,3.838,3.322,0.321,9.624,24,
East Lake Bonney,2/14/1995,,,,,0,,,,,0,5.779,4.343,0.45,12.886,24,
East Lake Bonney,2/15/1995,,,,,0,,,,,0,5.358,4.799,0.213,14.51,24,
East Lake Bonney,2/16/1995,,,,,0,,,,,0,5.616,5.245,0.356,14.875,24,
East Lake Bonney,2/17/1995,,,,,0,,,,,0,5.269,4.804,0.244,14.008,24,
East Lake Bonney,2/18/1995,,,,,0,,,,,0,5.459,4.885,0.221,13.958,24,
East Lake Bonney,2/19/1995,,,,,0,,,,,0,5.217,4.693,0.208,13.584,24,
East Lake Bonney,2/20/1995,,,,,0,,,,,0,3.942,3.651,0.117,11.928,24,
East Lake Bonney,2/21/1995,,,,,0,,,,,0,4.448,3.88,0.079,11.789,24,
East Lake Bonney,2/22/1995,,,,,0,,,,,0,3.61,2.983,0.054,8.171,24,
East Lake Bonney,2/23/1995,,,,,0,,,,,0,4.418,4.073,0.008,13.101,24,
East Lake Bonney,2/24/1995,,,,,0,,,,,0,2.595,2.29,0.008,6.62,24,
East Lake Bonney,2/25/1995,,,,,0,,,,,0,2.134,2.081,0,6.183,24,
East Lake Bonney,2/26/1995,,,,,0,,,,,0,2.809,3.099,0,9.059,24,
East Lake Bonney,2/27/1995,,,,,0,,,,,0,0.853,0.808,0,2.109,24,
East Lake Bonney,2/28/1995,,,,,0,,,,,0,0.567,0.578,0,1.519,24,
East Lake Bonney,3/1/1995,,,,,0,,,,,0,0.925,1.025,0,3.371,24,
East Lake Bonney,3/2/1995,,,,,0,,,,,0,0.995,1.145,0,3.568,24,
East Lake Bonney,3/3/1995,,,,,0,,,,,0,0.971,1.047,0,3.34,24,
East Lake Bonney,3/4/1995,,,,,0,,,,,0,0.92,0.883,0,2.311,24,
East Lake Bonney,3/5/1995,,,,,0,,,,,0,1.037,1.114,0,2.982,24,
East Lake Bonney,3/6/1995,,,,,0,,,,,0,1.572,1.802,0,5.199,24,
East Lake Bonney,3/7/1995,,,,,0,,,,,0,1.499,1.758,0,5.533,24,
East Lake Bonney,3/8/1995,,,,,0,,,,,0,1.79,1.913,0,5.075,24,
East Lake Bonney,3/9/1995,,,,,0,,,,,0,1.355,1.473,0,3.945,24,
East Lake Bonney,3/10/1995,,,,,0,,,,,0,1.117,1.317,0,3.986,24,
East Lake Bonney,3/11/1995,,,,,0,,,,,0,1.101,1.38,0,4.449,24,
East Lake Bonney,3/12/1995,,,,,0,,,,,0,1.121,1.474,0,4.659,24,
East Lake Bonney,3/13/1995,,,,,0,,,,,0,1.04,1.368,0,4.332,24,
East Lake Bonney,3/14/1995,,,,,0,,,,,0,0.978,1.288,0,4.125,24,
East Lake Bonney,3/15/1995,,,,,0,,,,,0,0.896,1.161,0,3.797,24,
East Lake Bonney,3/16/1995,,,,,0,,,,,0,0.803,0.97,0,2.705,24,
East Lake Bonney,3/17/1995,,,,,0,,,,,0,0.819,1.024,0,3.414,24,
East Lake Bonney,3/18/1995,,,,,0,,,,,0,0.818,1.009,0,3.353,24,
East Lake Bonney,3/19/1995,,,,,0,,,,,0,0.708,0.865,0,2.794,24,
East Lake Bonney,3/20/1995,,,,,0,,,,,0,0.779,0.939,0,2.683,24,
East Lake Bonney,3/21/1995,,,,,0,,,,,0,0.617,0.777,0,2.417,24,
East Lake Bonney,3/22/1995,,,,,0,,,,,0,0.542,0.688,0,2.236,24,
East Lake Bonney,3/23/1995,,,,,0,,,,,0,0.516,0.658,0,2,24,
East Lake Bonney,3/24/1995,,,,,0,,,,,0,0.48,0.616,0,1.848,24,
East Lake Bonney,3/25/1995,,,,,0,,,,,0,0.559,0.734,0,1.827,24,
East Lake Bonney,3/26/1995,,,,,0,,,,,0,0.443,0.597,0,1.628,24,
East Lake Bonney,3/27/1995,,,,,0,,,,,0,0.423,0.545,0,1.5,24,
East Lake Bonney,3/28/1995,,,,,0,,,,,0,0.383,0.512,0,1.513,24,
East Lake Bonney,3/29/1995,,,,,0,,,,,0,0.242,0.345,0,0.936,24,
East Lake Bonney,3/30/1995,,,,,0,,,,,0,0.253,0.341,0,0.893,24,
East Lake Bonney,3/31/1995,,,,,0,,,,,0,0.249,0.336,0,0.824,24,
East Lake Bonney,4/1/1995,,,,,0,,,,,0,0.226,0.31,0,0.769,24,
East Lake Bonney,4/2/1995,,,,,0,,,,,0,0.229,0.322,0,0.808,24,
East Lake Bonney,4/3/1995,,,,,0,,,,,0,0.194,0.279,0,0.72,24,
East Lake Bonney,4/4/1995,,,,,0,,,,,0,0.177,0.259,0,0.665,24,
East Lake Bonney,4/5/1995,,,,,0,,,,,0,0.16,0.238,0,0.619,24,
East Lake Bonney,4/6/1995,,,,,0,,,,,0,0.137,0.211,0,0.573,24,
East Lake Bonney,4/7/1995,,,,,0,,,,,0,0.128,0.199,0,0.533,24,
East Lake Bonney,4/8/1995,,,,,0,,,,,0,0.117,0.185,0,0.504,24,
East Lake Bonney,4/9/1995,,,,,0,,,,,0,0.127,0.227,0,0.738,24,
East Lake Bonney,4/10/1995,,,,,0,,,,,0,0.172,0.29,0,0.788,24,
East Lake Bonney,4/11/1995,,,,,0,,,,,0,0.126,0.216,0,0.682,24,
East Lake Bonney,4/12/1995,,,,,0,,,,,0,0.13,0.233,0,0.773,24,
East Lake Bonney,4/13/1995,,,,,0,,,,,0,0.083,0.15,0,0.435,24,
East Lake Bonney,4/14/1995,,,,,0,,,,,0,0.087,0.154,0,0.46,24,
East Lake Bonney,4/15/1995,,,,,0,,,,,0,0.071,0.132,0,0.368,24,
East Lake Bonney,4/16/1995,,,,,0,,,,,0,0.043,0.081,0,0.221,24,
East Lake Bonney,4/17/1995,,,,,0,,,,,0,0.052,0.1,0,0.299,24,
East Lake Bonney,4/18/1995,,,,,0,,,,,0,0.034,0.07,0,0.225,24,
East Lake Bonney,4/19/1995,,,,,0,,,,,0,0.03,0.064,0,0.205,24,
East Lake Bonney,4/20/1995,,,,,0,,,,,0,0.039,0.078,0,0.274,24,
East Lake Bonney,4/21/1995,,,,,0,,,,,0,0.024,0.05,0,0.175,24,
East Lake Bonney,4/22/1995,,,,,0,,,,,0,0.011,0.025,0,0.07,24,
East Lake Bonney,4/23/1995,,,,,0,,,,,0,0.01,0.024,0,0.07,24,
East Lake Bonney,4/24/1995,,,,,0,,,,,0,0.006,0.015,0,0.055,24,
East Lake Bonney,4/25/1995,,,,,0,,,,,0,0.001,0.004,0,0.015,24,
East Lake Bonney,4/26/1995,,,,,0,,,,,0,0.341,0.377,0,1.125,24,
East Lake Bonney,4/27/1995,,,,,0,,,,,0,0.058,0.111,0,0.467,24,
East Lake Bonney,4/28/1995,,,,,0,,,,,0,0.001,0.003,0,0.013,24,
East Lake Bonney,4/29/1995,,,,,0,,,,,0,0.001,0.005,0,0.022,24,
East Lake Bonney,4/30/1995,,,,,0,,,,,0,0.005,0.015,0,0.06,24,
East Lake Bonney,5/1/1995,,,,,0,,,,,0,0,0,0,0,24,
East Lake Bonney,5/2/1995,,,,,0,,,,,0,0,0,0,0,24,
East Lake Bonney,5/3/1995,,,,,0,,,,,0,0,0,0,0,24,
East Lake Bonney,5/4/1995,,,,,0,,,,,0,0,0,0,0,24,
East Lake Bonney,5/5/1995,,,,,0,,,,,0,0.163,0.273,0,1.084,24,
East Lake Bonney,5/6/1995,,,,,0,,,,,0,0.01,0.019,0,0.088,24,
East Lake Bonney,5/7/1995,,,,,0,,,,,0,0,0,0,0.002,24,
East Lake Bonney,5/8/1995,,,,,0,,,,,0,0,0,0,0,24,
East Lake Bonney,5/9/1995,,,,,0,,,,,0,0,0,0,0,24,
East Lake Bonney,5/10/1995,,,,,0,,,,,0,0,0,0,0,24,
East Lake Bonney,5/11/1995,,,,,0,,,,,0,0,0,0,0,24,
East Lake Bonney,5/12/1995,,,,,0,,,,,0,0,0.001,0,0.007,24,
East Lake Bonney,5/13/1995,,,,,0,,,,,0,0,0,0,0,24,
East Lake Bonney,5/14/1995,,,,,0,,,,,0,0,0,0,0,24,
East Lake Bonney,5/15/1995,,,,,0,,,,,0,0,0,0,0,24,
East Lake Bonney,5/16/1995,,,,,0,,,,,0,0,0,0,0,24,
East Lake Bonney,5/17/1995,,,,,0,,,,,0,0,0,0,0,24,
East Lake Bonney,5/18/1995,,,,,0,,,,,0,0,0,0,0,24,
East Lake Bonney,5/19/1995,,,,,0,,,,,0,0.053,0.165,0,0.741,24,
East Lake Bonney,5/20/1995,,,,,0,,,,,0,0.269,0.338,0,1.204,24,
East Lake Bonney,5/21/1995,,,,,0,,,,,0,0,0,0,0,24,
East Lake Bonney,5/22/1995,,,,,0,,,,,0,0,0,0,0,24,
East Lake Bonney,5/23/1995,,,,,0,,,,,0,0,0,0,0,24,
East Lake Bonney,5/24/1995,,,,,0,,,,,0,0,0,0,0,24,
East Lake Bonney,5/25/1995,,,,,0,,,,,0,0.006,0.009,0,0.033,24,
East Lake Bonney,5/26/1995,,,,,0,,,,,0,0.011,0.021,0,0.066,24,
East Lake Bonney,5/27/1995,,,,,0,,,,,0,0,0,0,0,24,
East Lake Bonney,5/28/1995,,,,,0,,,,,0,0,0,0,0,24,
East Lake Bonney,5/29/1995,,,,,0,,,,,0,0,0,0,0,24,
East Lake Bonney,5/30/1995,,,,,0,,,,,0,0,0,0,0,24,
East Lake Bonney,5/31/1995,,,,,0,,,,,0,0,0,0,0,24,
East Lake Bonney,6/1/1995,,,,,0,,,,,0,0,0,0,0.002,24,
East Lake Bonney,6/2/1995,,,,,0,,,,,0,0,0,0,0,24,
East Lake Bonney,6/3/1995,,,,,0,,,,,0,0,0,0,0,24,
East Lake Bonney,6/4/1995,,,,,0,,,,,0,0.111,0.195,0,0.661,24,
East Lake Bonney,6/5/1995,,,,,0,,,,,0,0.031,0.037,0,0.128,24,
East Lake Bonney,6/6/1995,,,,,0,,,,,0,0.002,0.007,0,0.031,24,
East Lake Bonney,6/7/1995,,,,,0,,,,,0,0,0.001,0,0.007,24,
East Lake Bonney,6/8/1995,,,,,0,,,,,0,0,0,0,0,24,
East Lake Bonney,6/9/1995,,,,,0,,,,,0,0.003,0.016,0,0.079,24,
East Lake Bonney,6/10/1995,,,,,0,,,,,0,0.008,0.011,0,0.043,24,
East Lake Bonney,6/11/1995,,,,,0,,,,,0,0.006,0.014,0,0.064,24,
East Lake Bonney,6/12/1995,,,,,0,,,,,0,0.007,0.013,0,0.043,24,
East Lake Bonney,6/13/1995,,,,,0,,,,,0,0.006,0.008,0,0.024,24,
East Lake Bonney,6/14/1995,,,,,0,,,,,0,0,0.001,0,0.002,24,
East Lake Bonney,6/15/1995,,,,,0,,,,,0,0.001,0.003,0,0.014,24,
East Lake Bonney,6/16/1995,,,,,0,,,,,0,0,0,0,0,24,
East Lake Bonney,6/17/1995,,,,,0,,,,,0,0,0,0,0,24,
East Lake Bonney,6/18/1995,,,,,0,,,,,0,0,0.001,0,0.002,24,
East Lake Bonney,6/19/1995,,,,,0,,,,,0,0.02,0.07,0,0.343,24,
East Lake Bonney,6/20/1995,,,,,0,,,,,0,0.001,0.002,0,0.005,24,
East Lake Bonney,6/21/1995,,,,,0,,,,,0,0.002,0.004,0,0.016,24,
East Lake Bonney,6/22/1995,,,,,0,,,,,0,0.003,0.005,0,0.017,24,
East Lake Bonney,6/23/1995,,,,,0,,,,,0,0.001,0.003,0,0.009,24,
East Lake Bonney,6/24/1995,,,,,0,,,,,0,0.001,0.004,0,0.019,24,
East Lake Bonney,6/25/1995,,,,,0,,,,,0,0.002,0.005,0,0.017,24,
East Lake Bonney,6/26/1995,,,,,0,,,,,0,0,0,0,0,24,
East Lake Bonney,6/27/1995,,,,,0,,,,,0,0.001,0.002,0,0.007,24,
East Lake Bonney,6/28/1995,,,,,0,,,,,0,0,0,0,0.002,24,
East Lake Bonney,6/29/1995,,,,,0,,,,,0,0.001,0.002,0,0.005,24,
East Lake Bonney,6/30/1995,,,,,0,,,,,0,0.004,0.005,0,0.021,24,
East Lake Bonney,7/1/1995,,,,,0,,,,,0,0.008,0.023,0,0.086,24,
East Lake Bonney,7/2/1995,,,,,0,,,,,0,0.002,0.004,0,0.019,24,
East Lake Bonney,7/3/1995,,,,,0,,,,,0,0.001,0.002,0,0.008,24,
East Lake Bonney,7/4/1995,,,,,0,,,,,0,0,0,0,0.002,24,
East Lake Bonney,7/5/1995,,,,,0,,,,,0,0.001,0.003,0,0.014,24,
East Lake Bonney,7/6/1995,,,,,0,,,,,0,0,0,0,0,24,
East Lake Bonney,7/7/1995,,,,,0,,,,,0,0,0,0,0,24,
East Lake Bonney,7/8/1995,,,,,0,,,,,0,0,0,0,0,24,
East Lake Bonney,7/9/1995,,,,,0,,,,,0,0,0,0,0.002,24,
East Lake Bonney,7/10/1995,,,,,0,,,,,0,0,0,0,0,24,
East Lake Bonney,7/11/1995,,,,,0,,,,,0,0,0,0,0,24,
East Lake Bonney,7/12/1995,,,,,0,,,,,0,0,0,0,0,24,
East Lake Bonney,7/13/1995,,,,,0,,,,,0,0,0,0,0,24,
East Lake Bonney,7/14/1995,,,,,0,,,,,0,0.004,0.006,0,0.02,24,
East Lake Bonney,7/15/1995,,,,,0,,,,,0,0,0,0,0,24,
East Lake Bonney,7/16/1995,,,,,0,,,,,0,0,0,0,0,24,
East Lake Bonney,7/17/1995,,,,,0,,,,,0,0,0,0,0,24,
East Lake Bonney,7/18/1995,,,,,0,,,,,0,0.005,0.011,0,0.041,24,
East Lake Bonney,7/19/1995,,,,,0,,,,,0,0.001,0.001,0,0.004,24,
East Lake Bonney,7/20/1995,,,,,0,,,,,0,0.002,0.005,0,0.017,24,
East Lake Bonney,7/21/1995,,,,,0,,,,,0,0.002,0.004,0,0.014,24,
East Lake Bonney,7/22/1995,,,,,0,,,,,0,0.002,0.003,0,0.013,24,
East Lake Bonney,7/23/1995,,,,,0,,,,,0,0,0,0,0,24,
East Lake Bonney,7/24/1995,,,,,0,,,,,0,0.001,0.003,0,0.009,24,
East Lake Bonney,7/25/1995,,,,,0,,,,,0,0,0.001,0,0.005,24,
East Lake Bonney,7/26/1995,,,,,0,,,,,0,0.002,0.005,0,0.021,24,
East Lake Bonney,7/27/1995,,,,,0,,,,,0,0.001,0.004,0,0.013,24,
East Lake Bonney,7/28/1995,,,,,0,,,,,0,0.003,0.005,0,0.019,24,
East Lake Bonney,7/29/1995,,,,,0,,,,,0,0.001,0.003,0,0.013,24,
East Lake Bonney,7/30/1995,,,,,0,,,,,0,0,0,0,0,24,
East Lake Bonney,7/31/1995,,,,,0,,,,,0,0,0,0,0,24,
East Lake Bonney,8/1/1995,,,,,0,,,,,0,0,0,0,0,24,
East Lake Bonney,8/2/1995,,,,,0,,,,,0,0.001,0.002,0,0.009,24,
East Lake Bonney,8/3/1995,,,,,0,,,,,0,0,0.001,0,0.005,24,
East Lake Bonney,8/4/1995,,,,,0,,,,,0,0.001,0.003,0,0.015,24,
East Lake Bonney,8/5/1995,,,,,0,,,,,0,0.008,0.008,0,0.028,24,
East Lake Bonney,8/6/1995,,,,,0,,,,,0,0.004,0.005,0,0.015,24,
East Lake Bonney,8/7/1995,,,,,0,,,,,0,0.001,0.002,0,0.005,24,
East Lake Bonney,8/8/1995,,,,,0,,,,,0,0,0.001,0,0.004,24,
East Lake Bonney,8/9/1995,,,,,0,,,,,0,0.005,0.009,0,0.03,24,
East Lake Bonney,8/10/1995,,,,,0,,,,,0,0.007,0.009,0,0.028,24,
East Lake Bonney,8/11/1995,,,,,0,,,,,0,0.016,0.009,0.004,0.042,24,
East Lake Bonney,8/12/1995,,,,,0,,,,,0,0.006,0.015,0,0.054,24,
East Lake Bonney,8/13/1995,,,,,0,,,,,0,0,0.001,0,0.007,24,
East Lake Bonney,8/14/1995,,,,,0,,,,,0,0.007,0.01,0,0.03,24,
East Lake Bonney,8/15/1995,,,,,0,,,,,0,0.01,0.013,0,0.05,24,
East Lake Bonney,8/16/1995,,,,,0,,,,,0,0.012,0.018,0,0.075,24,
East Lake Bonney,8/17/1995,,,,,0,,,,,0,0.018,0.024,0,0.07,24,
East Lake Bonney,8/18/1995,,,,,0,,,,,0,0.016,0.025,0,0.071,24,
East Lake Bonney,8/19/1995,,,,,0,,,,,0,0.014,0.032,0,0.106,24,
East Lake Bonney,8/20/1995,,,,,0,,,,,0,0.015,0.039,0,0.134,24,
East Lake Bonney,8/21/1995,,,,,0,,,,,0,0.019,0.043,0,0.141,24,
East Lake Bonney,8/22/1995,,,,,0,,,,,0,0.034,0.067,0,0.221,24,
East Lake Bonney,8/23/1995,,,,,0,,,,,0,0.036,0.071,0,0.228,24,
East Lake Bonney,8/24/1995,,,,,0,,,,,0,0.043,0.085,0,0.283,24,
East Lake Bonney,8/25/1995,,,,,0,,,,,0,0.052,0.103,0,0.31,24,
East Lake Bonney,8/26/1995,,,,,0,,,,,0,0.046,0.086,0,0.253,24,
East Lake Bonney,8/27/1995,,,,,0,,,,,0,0.073,0.124,0,0.395,24,
East Lake Bonney,8/28/1995,,,,,0,,,,,0,0.08,0.144,0,0.419,24,
East Lake Bonney,8/29/1995,,,,,0,,,,,0,0.079,0.144,0,0.425,24,
East Lake Bonney,8/30/1995,,,,,0,,,,,0,0.091,0.159,0,0.458,24,
East Lake Bonney,8/31/1995,,,,,0,,,,,0,0.103,0.189,0,0.545,23,
East Lake Bonney,9/1/1995,,,,,0,,,,,0,0.122,0.204,0,0.609,24,
East Lake Bonney,9/2/1995,,,,,0,,,,,0,0.129,0.214,0,0.624,24,
East Lake Bonney,9/3/1995,,,,,0,,,,,0,0.156,0.256,0,0.807,24,
East Lake Bonney,9/4/1995,,,,,0,,,,,0,0.109,0.203,0,0.664,32,
East Lake Bonney,9/5/1995,,,,,0,,,,,0,0.17,0.253,0,0.725,72,
East Lake Bonney,9/6/1995,,,,,0,,,,,0,0.176,0.263,0,0.722,72,
East Lake Bonney,9/7/1995,,,,,0,,,,,0,0.195,0.281,0,0.834,72,
East Lake Bonney,9/8/1995,,,,,0,,,,,0,0.228,0.326,0,1.011,72,
East Lake Bonney,9/9/1995,,,,,0,,,,,0,0.218,0.303,0,0.812,72,
East Lake Bonney,9/10/1995,,,,,0,,,,,0,0.273,0.388,0,1.112,72,
East Lake Bonney,9/11/1995,,,,,0,,,,,0,0.286,0.406,0,1.094,72,
East Lake Bonney,9/12/1995,,,,,0,,,,,0,0.266,0.334,0,0.874,72,
East Lake Bonney,9/13/1995,,,,,0,,,,,0,0.24,0.34,0,1.043,72,
East Lake Bonney,9/14/1995,,,,,0,,,,,0,0.383,0.436,0,1.384,72,
East Lake Bonney,9/15/1995,,,,,0,,,,,0,0.4,0.496,0.005,1.441,72,
East Lake Bonney,9/16/1995,,,,,0,,,,,0,0.458,0.572,0,1.658,72,
East Lake Bonney,9/17/1995,,,,,0,,,,,0,0.347,0.407,0,1.288,72,
East Lake Bonney,9/18/1995,,,,,0,,,,,0,0.601,0.747,0,2.056,72,
East Lake Bonney,9/19/1995,,,,,0,,,,,0,0.594,0.753,0,2.191,72,
East Lake Bonney,9/20/1995,,,,,0,,,,,0,0.604,0.72,0,2.357,72,
East Lake Bonney,9/21/1995,,,,,0,,,,,0,0.634,0.76,0,2.018,72,
East Lake Bonney,9/22/1995,,,,,0,,,,,0,0.633,0.757,0,2.7,72,
East Lake Bonney,9/23/1995,,,,,0,,,,,0,0.668,0.779,0,2.236,72,
East Lake Bonney,9/24/1995,,,,,0,,,,,0,0.881,1.077,0,3.25,72,
East Lake Bonney,9/25/1995,,,,,0,,,,,0,0.786,0.937,0,3.43,72,
East Lake Bonney,9/26/1995,,,,,0,,,,,0,0.726,0.842,0,3.102,72,
East Lake Bonney,9/27/1995,,,,,0,,,,,0,0.949,1.057,0,2.922,72,
East Lake Bonney,9/28/1995,,,,,0,,,,,0,1.015,1.134,0,2.991,72,
East Lake Bonney,9/29/1995,,,,,0,,,,,0,1.084,1.231,0,3.355,72,
East Lake Bonney,9/30/1995,,,,,0,,,,,0,1.088,1.22,0,3.961,72,
East Lake Bonney,10/1/1995,,,,,0,,,,,0,1.159,1.287,0.009,3.989,72,
East Lake Bonney,10/2/1995,,,,,0,,,,,0,1.101,1.175,0,3.404,72,
East Lake Bonney,10/3/1995,,,,,0,,,,,0,1.281,1.328,0.002,4.028,72,
East Lake Bonney,10/4/1995,,,,,0,,,,,0,1.23,1.454,0,5.02,72,
East Lake Bonney,10/5/1995,,,,,0,,,,,0,1.292,1.522,0,5.18,72,
East Lake Bonney,10/6/1995,,,,,0,,,,,0,1.448,1.655,0,5.325,72,
East Lake Bonney,10/7/1995,,,,,0,,,,,0,1.515,1.593,0,5.496,72,
East Lake Bonney,10/8/1995,,,,,0,,,,,0,1.46,1.605,0,5.408,72,
East Lake Bonney,10/9/1995,,,,,0,,,,,0,1.738,1.737,0,5.087,72,
East Lake Bonney,10/10/1995,,,,,0,,,,,0,1.651,1.863,0.038,5.961,72,
East Lake Bonney,10/11/1995,,,,,0,,,,,0,1.71,1.928,0,6.058,72,
East Lake Bonney,10/12/1995,,,,,0,,,,,0,1.668,1.881,0,6.141,72,
East Lake Bonney,10/13/1995,,,,,0,,,,,0,1.843,2.01,0.024,6.318,72,
East Lake Bonney,10/14/1995,,,,,0,,,,,0,1.94,2.085,0.013,6.506,72,
East Lake Bonney,10/15/1995,,,,,0,,,,,0,1.954,1.785,0.005,5.134,71,
East Lake Bonney,10/16/1995,,,,,0,,,,,0,2.179,2.228,0.002,8.004,72,
East Lake Bonney,10/17/1995,,,,,0,,,,,0,2.253,2.277,0.013,7.481,72,
East Lake Bonney,10/18/1995,,,,,0,,,,,0,2.271,2.243,0,7.047,72,
East Lake Bonney,10/19/1995,,,,,0,,,,,0,1.462,1.255,0.027,3.76,72,
East Lake Bonney,10/20/1995,,,,,0,,,,,0,1.321,1.204,0.002,3.981,72,
East Lake Bonney,10/21/1995,,,,,0,,,,,0,1.958,1.601,0.053,4.375,72,
East Lake Bonney,10/22/1995,,,,,0,,,,,0,2.557,2.254,0.07,7.511,72,
East Lake Bonney,10/23/1995,,,,,0,,,,,0,2.813,2.499,0.07,7.521,72,
East Lake Bonney,10/24/1995,,,,,0,,,,,0,2.991,2.591,0.088,7.698,72,
East Lake Bonney,10/25/1995,,,,,0,,,,,0,2.665,2.17,0.121,8.704,72,
East Lake Bonney,10/26/1995,,,,,0,,,,,0,3.129,2.827,0.142,8.221,72,
East Lake Bonney,10/27/1995,,,,,0,,,,,0,3.336,2.859,0.197,8.122,72,
East Lake Bonney,10/28/1995,,,,,0,,,,,0,3.465,2.928,0.251,8.339,72,
East Lake Bonney,10/29/1995,,,,,0,,,,,0,3.56,2.963,0.283,8.408,72,
East Lake Bonney,10/30/1995,,,,,0,,,,,0,3.393,2.456,0.286,7.974,72,
East Lake Bonney,10/31/1995,,,,,0,,,,,0,3.766,2.972,0.347,8.763,72,
East Lake Bonney,11/1/1995,,,,,0,,,,,0,4.01,3.169,0,9.057,72,
East Lake Bonney,11/2/1995,,,,,0,,,,,0,3.488,2.604,0.43,8.73,72,
East Lake Bonney,11/3/1995,,,,,0,,,,,0,3.198,1.959,0.498,6.372,72,
East Lake Bonney,11/4/1995,,,,,0,,,,,0,4.091,3.145,0.551,10.953,72,
East Lake Bonney,11/5/1995,,,,,0,,,,,0,4.816,3.549,0.587,10.114,72,
East Lake Bonney,11/6/1995,,,,,0,,,,,0,4.931,3.61,0.642,10.279,72,
East Lake Bonney,11/7/1995,,,,,0,,,,,0,4.97,3.59,0.742,10.563,72,
East Lake Bonney,11/8/1995,,,,,0,,,,,0,5.109,3.691,0.673,10.522,72,
East Lake Bonney,11/9/1995,,,,,0,,,,,0,4.435,3.284,0.655,11.1,72,
East Lake Bonney,11/10/1995,,,,,0,,,,,0,1.737,0.827,0.289,3.074,72,
East Lake Bonney,11/11/1995,,,,,0,,,,,0,3.811,2.923,0.564,12.1,72,
East Lake Bonney,11/12/1995,,,,,0,,,,,0,5.44,3.724,0.835,12.904,72,
East Lake Bonney,11/13/1995,,,,,0,,,,,0,5.771,4.127,0.746,12.193,72,
East Lake Bonney,11/14/1995,,,,,0,,,,,0,5.419,3.646,0.857,12.152,72,
East Lake Bonney,11/15/1995,,,,,0,,,,,0,5.397,3.553,1.155,11.776,72,
East Lake Bonney,11/16/1995,,,,,0,,,,,0,5.976,3.964,1,14.349,72,
East Lake Bonney,11/17/1995,,,,,0,,,,,0,6.314,4.233,1,12.371,72,
East Lake Bonney,11/18/1995,,,,,0,,,,,0,6.363,4.226,1,12.418,72,
East Lake Bonney,11/19/1995,,,,,0,,,,,0,6.385,4.237,0.999,12.425,72,
East Lake Bonney,11/20/1995,,,,,0,,,,,0,6.423,4.24,1,12.58,72,
East Lake Bonney,11/21/1995,,,,,0,,,,,0,6.07,4.061,1.064,14.09,72,
East Lake Bonney,11/22/1995,,,,,0,,,,,0,4.859,2.951,1.013,11.171,72,
East Lake Bonney,11/23/1995,,,,,0,,,,,0,5.084,3.152,1.075,11.64,72,
East Lake Bonney,11/24/1995,,,,,0,,,,,0,6.399,4.064,1.039,12.001,72,
East Lake Bonney,11/25/1995,,,,,0,,,,,0,6.174,3.876,1.021,11.479,72,
East Lake Bonney,11/26/1995,,,,,0,,,,,0,6.431,4.044,1.042,11.918,72,
East Lake Bonney,11/27/1995,,,,,0,,,,,0,5.751,3.613,1.196,11.729,72,
East Lake Bonney,11/28/1995,,,,,0,,,,,0,6.659,4.552,1.14,16.14,72,
East Lake Bonney,11/29/1995,,,,,0,,,,,0,5.486,3.734,1.136,12.882,72,
East Lake Bonney,11/30/1995,,,,,0,,,,,0,6.041,3.854,0.808,11.517,72,
East Lake Bonney,12/1/1995,,,,,0,,,,,0,6.158,3.746,1.072,11.24,72,
East Lake Bonney,12/2/1995,,,,,0,,,,,0,6.003,3.689,1.071,10.925,72,
East Lake Bonney,12/3/1995,,,,,0,,,,,0,5.554,3.66,1.003,10.56,72,
East Lake Bonney,12/4/1995,,,,,0,,,,,0,5.071,3.317,1.145,10.881,72,
East Lake Bonney,12/5/1995,,,,,0,,,,,0,4.494,2.031,1.564,7.442,72,
East Lake Bonney,12/6/1995,,,,,0,,,,,0,4.747,2.771,1.554,14.187,72,
East Lake Bonney,12/7/1995,,,,,0,,,,,0,4.886,2.409,1.542,9.23,72,
East Lake Bonney,12/8/1995,,,,,0,,,,,0,5.988,3.548,1.34,12.234,72,
East Lake Bonney,12/9/1995,,,,,0,,,,,0,6.406,3.345,1.744,11.037,72,
East Lake Bonney,12/10/1995,,,,,0,,,,,0,5.197,3.106,1.774,11.887,72,
East Lake Bonney,12/11/1995,,,,,0,,,,,0,4.697,3.069,0.812,11.082,72,
East Lake Bonney,12/12/1995,,,,,0,,,,,0,4.138,2.45,1,9.505,72,
East Lake Bonney,12/13/1995,,,,,0,,,,,0,4.001,2.518,0.788,9.328,72,
East Lake Bonney,12/14/1995,,,,,0,,,,,0,3.73,1.99,1.299,8.397,72,
East Lake Bonney,12/15/1995,,,,,0,,,,,0,3.708,2.428,0.879,9.089,72,
East Lake Bonney,12/16/1995,,,,,0,,,,,0,4.177,2.441,0.804,8.052,72,
East Lake Bonney,12/17/1995,,,,,0,,,,,0,3.461,2.427,0.759,7.933,72,
East Lake Bonney,12/18/1995,,,,,0,,,,,0,3.12,1.994,0.759,7.433,72,
East Lake Bonney,12/19/1995,,,,,0,,,,,0,3.996,2.42,1.063,7.832,72,
East Lake Bonney,12/20/1995,,,,,0,,,,,0,3.98,2.544,0.867,9.061,72,
East Lake Bonney,12/21/1995,,,,,0,,,,,0,3.845,2.497,0.821,8.376,72,
East Lake Bonney,12/22/1995,,,,,0,,,,,0,3.259,2.174,0.729,9.39,72,